This demonstration page uses our WeatherBlox Daily Observations layout. Learn more.

Left ArrowRight Arrow

44.8408, -93.29828

Hourly Observations for May 19, 2015

Temp ( °F °C ) Dew Point ( °F °C ) Humidity (%) Winds ( mph kmh ) Pressure ( in mb ) Visibility ( mi km ) Precip ( " mm )
12:00 am 00:00 Cloudy 42 5.6 33 0.6 71 71 NNW 16 26 30.27 1025 10 16 0.00 0.00
12:53 am 00:53 Cloudy with Drizzle 40 4.4 34 1.1 79 79 NW 16 26 30.29 1026 10 16 0.00 0.03
1:00 am 01:00 Cloudy with Drizzle 39 4 34 1 81 81 NW 14 22 30.30 1026 10 16 0.00 0.00
1:53 am 01:53 Cloudy 40 4.4 30 -1.1 68 68 NNW 14 22 30.30 1026 10 16 0.00 0.03
2:53 am 02:53 Mostly Clear 38 3.3 29 -1.7 70 70 NNW 13 20 30.32 1027 10 16 0.00 0.00
3:53 am 03:53 Cloudy with Drizzle 38 3.3 31 -0.6 76 76 N 7 11 30.32 1027 10 16 0.00 0.03
4:05 am 04:05 Mostly Cloudy 38 3.3 31 -0.6 76 76 N 7 11 30.33 1027 10 16 0.00 0.03
4:15 am 04:15 Mostly Cloudy 38 3.3 32 0 79 79 N 7 11 30.33 1027 10 16 0.00 0.03
4:53 am 04:53 Cloudy 38 3.3 31 -0.6 76 76 NNW 9 15 30.33 1027 10 16 0.00 0.03
5:49 am 05:49 Partly Cloudy 37 3 30 -1 75 75 NNW 9 15 30.36 1028 10 16 0.00 0.03
5:53 am 05:53 Partly Cloudy 37 2.8 30 -1.1 76 76 N 15 24 30.35 1028 10 16 0.00 0.03
6:53 am 06:53 Mostly Sunny 38 3.3 29 -1.7 70 70 N 15 24 30.36 1028 10 16 0.00 0.00
7:53 am 07:53 Partly Cloudy 39 3.9 29 -1.7 67 67 N 10 17 30.33 1027 10 16 0.00 0.00
8:10 am 08:10 Mostly Cloudy 39 4 28 -2 65 65 N 15 24 30.33 1027 10 16 0.00 0.00
8:53 am 08:53 Cloudy 40 4.4 29 -1.7 65 65 N 8 13 30.38 1029 10 16 0.00 0.00
9:53 am 09:53 Cloudy 41 5 30 -1.1 65 65 W 6 9 30.43 1030 10 16 0.00 0.00
10:53 am 10:53 Cloudy 44 6.7 32 0 63 63 NNW 8 13 30.42 1030 10 16 0.00 0.00
11:16 am 11:16 Mostly Cloudy 46 8 32 0 57 57 N 14 22 30.42 1030 10 16 0.00 0.00
11:53 am 11:53 Mostly Cloudy 46 7.8 31 -0.6 56 56 NNW 13 20 30.38 1029 10 16 0.00 0.00
12:53 pm 12:53 Partly Cloudy 51 10.6 34 1.1 52 52 NNW 8 13 30.36 1028 10 16 0.00 0.00
1:53 pm 13:53 Partly Cloudy 53 11.7 34 1.1 48 48 NNE 7 11 30.35 1028 10 16 0.00 0.00
2:53 pm 14:53 Mostly Sunny 54 12.2 34 1.1 47 47 NNW 8 13 30.32 1027 10 16 0.00 0.00
3:53 pm 15:53 Partly Cloudy 56 13.3 34 1.1 44 44 NNE 8 13 30.31 1026 10 16 0.00 0.00
4:53 pm 16:53 Mostly Cloudy 57 13.9 33 0.6 41 41 N 8 13 30.28 1025 10 16 0.00 0.00
5:53 pm 17:53 Mostly Cloudy 57 13.9 31 -0.6 37 37 VRB 6 9 30.28 1026 10 16 0.00 0.00
6:53 pm 18:53 Mostly Cloudy 57 13.9 31 -0.6 37 37 NW 5 7 30.28 1026 10 16 0.00 0.00
7:53 pm 19:53 Mostly Cloudy 57 13.9 30 -1.1 36 36 Calm 30.28 1025 10 16 0.00 0.00
8:53 pm 20:53 Partly Cloudy 53 11.7 32 0 45 45 NW 5 7 30.27 1025 10 16 0.00 0.00
9:53 pm 21:53 Mostly Clear 53 11.7 30 -1.1 41 41 Calm 30.29 1026 10 16 0.00 0.00
10:53 pm 22:53 Mostly Clear 49 9.4 34 1.1 56 56 Calm 30.28 1025 10 16 0.00 0.00
11:53 pm 23:53 Clear 46 7.8 34 1.1 63 63 Calm 30.27 1025 10 16 0.00 0.00

Powered by AerisWeather